CW9203 Weather Reports


Display with metric or nautical units.
time (UTC)temp
F
wind
direction
speed
MPH
gust
MPH
rain 1hr
in
rain 24hr
in
rain mn
in
humidity
%
barometer
mb
20260504050305 64 61 3.0 7.0 0.00 0.00 0.00 64 1033.9
20260504045806 64 59 3.0 6.0 0.00 0.00 0.00 64 1033.8
20260504045305 64 32 3.0 6.0 0.00 0.00 0.00 64 1033.8
20260504044805 65 58 2.0 5.0 0.00 0.00 0.00 63 1033.7
20260504043306 65 65 2.0 6.0 0.00 0.00 0.00 63 1033.7
20260504040805 65 53 3.0 6.0 0.00 0.00 0.00 65 1034.0
20260504034804 65 33 4.0 6.0 0.00 0.00 0.00 63 1034.1
20260504034304 65 61 4.0 6.0 0.00 0.00 0.00 63 1034.1
20260504033805 65 61 5.0 10.0 0.00 0.00 0.00 63 1034.0
20260504031305 65 90 4.0 8.0 0.00 0.00 0.00 63 1034.1
20260504024804 65 351 3.0 7.0 0.00 0.00 0.00 63 1034.0
20260504023804 65 53 5.0 8.0 0.00 0.00 0.00 63 1034.0
20260504023303 65 13 2.0 6.0 0.00 0.00 0.00 63 1034.1
20260504022804 65 48 4.0 7.0 0.00 0.00 0.00 63 1034.1
20260504021803 65 55 3.0 6.0 0.00 0.00 0.00 63 1034.0
20260504021304 65 73 5.0 7.0 0.00 0.00 0.00 63 1034.1
20260504015803 65 29 4.0 9.0 0.00 0.00 0.00 62 1034.2
20260504015304 65 29 3.0 10.0 0.00 0.00 0.00 62 1034.2
20260504014803 66 27 5.0 10.0 0.00 0.00 0.00 62 1034.3
20260504013804 67 32 2.0 7.0 0.00 0.00 0.00 60 1034.4
20260504012803 66 308 1.0 5.0 0.00 0.00 0.00 63 1034.5
20260504012304 65 76 3.0 6.0 0.00 0.00 0.00 63 1034.6
20260504010804 65 17 6.0 12.0 0.00 0.00 0.00 62 1034.9
20260504010303 65 341 2.0 8.0 0.00 0.00 0.00 63 1034.8
20260504005804 65 32 2.0 6.0 0.00 0.00 0.00 63 1034.9
20260504005304 65 359 3.0 6.0 0.00 0.00 0.00 64 1034.9
20260504004803 65 33 1.0 6.0 0.00 0.00 0.00 64 1035.0
20260504002304 64 51 3.0 7.0 0.00 0.00 0.00 64 1035.2
20260504001803 64 35 3.0 6.0 0.00 0.00 0.00 65 1035.3
20260503233304 63 53 5.0 8.0 0.00 0.00 0.00 64 1035.8
20260503231304 62 166 2.0 8.0 0.00 0.00 0.00 52 1035.9
20260503230804 61 122 2.0 6.0 0.00 0.00 0.00 51 1036.0
20260503230303 61 123 2.0 5.0 0.00 0.00 0.00 44 1036.0
20260503225804 61 128 3.0 8.0 0.00 0.00 0.00 51 1036.1
20260503225304 61 114 3.0 8.0 0.00 0.00 0.00 51 1036.0
20260503224804 61 130 3.0 7.0 0.00 0.00 0.00 49 1036.1
20260503223804 61 89 2.0 3.0 0.00 0.00 0.00 42 1036.1
20260503223303 60 128 3.0 6.0 0.00 0.00 0.00 43 1036.1
20260503222804 60 84 3.0 5.0 0.00 0.00 0.00 38 1036.1
20260503222304 59 107 3.0 5.0 0.00 0.00 0.00 27 1036.1
20260503220804 59 148 3.0 6.0 0.00 0.00 0.00 22 1036.2
20260503215804 58 140 2.0 5.0 0.00 0.00 0.00 20 1036.2
20260503215304 59 116 2.0 5.0 0.00 0.00 0.00 4 1036.2
20260503214804 59 155 2.0 5.0 0.00 0.00 0.00 4 1036.2
20260503214303 58 155 3.0 6.0 0.00 0.00 0.00 4 1036.2
20260503213303 58 132 3.0 6.0 0.00 0.00 0.00 4 1036.2
20260503212804 59 152 3.0 5.0 0.00 0.00 0.00 4 1036.2
20260503211804 59 135 1.0 5.0 0.00 0.00 0.00 4 1036.3
20260503205804 58 103 2.0 3.0 0.00 0.00 0.00 4 1036.4
20260503205304 58 242 0.0 3.0 0.00 0.00 0.00 4 1036.4
20260503204303 58 113 1.0 3.0 0.00 0.00 0.00 4 1036.4
20260503203804 57 160 1.0 3.0 0.00 0.00 0.00 4 1036.5
20260503202304 57 123 1.0 3.0 0.00 0.00 0.00 4 1036.5
20260503200804 56 109 0.0 2.0 0.00 0.00 0.00 4 1036.4
20260503195304 56 131 0.0 1.0 0.00 0.00 0.00 4 1036.3
20260503193303 56 170 0.0 2.0 0.00 0.00 0.00 4 1036.1
20260503192804 56 139 0.0 2.0 0.00 0.00 0.00 4 1036.1
20260503192305 56 118 0.0 1.0 0.00 0.00 0.00 4 1036.0
20260503191804 56 162 1.0 3.0 0.00 0.00 0.00 4 1036.0
20260503191304 56 130 1.0 3.0 0.00 0.00 0.00 4 1035.9
20260503183803 56 137 0.0 0.0 0.00 0.00 0.00 4 1035.7
20260503182804 56 144 1.0 1.0 0.00 0.00 0.00 4 1035.5
20260503181804 56 123 0.0 2.0 0.00 0.00 0.00 4 1035.4
20260503180304 56 125 0.0 0.0 0.00 0.00 0.00 4 1035.4
20260503175804 56 126 0.0 1.0 0.00 0.00 0.00 4 1035.4
20260503175305 56 124 1.0 1.0 0.00 0.00 0.00 4 1035.4
20260503174804 56 126 0.0 1.0 0.00 0.00 0.00 4 1035.4
20260503173303 56 107 1.0 3.0 0.00 0.00 0.00 4 1035.2
20260503172804 56 126 1.0 3.0 0.00 0.00 0.00 4 1035.1
20260503172305 55 115 1.0 2.0 0.00 0.00 0.00 4 1035.2
20260503171304 55 170 0.0 1.0 0.00 0.00 0.00 4 1035.2
20260503150304 56 122 0.0 2.0 0.00 0.00 0.00 4 1035.4
20260503131304 57 126 2.0 5.0 0.00 0.00 0.00 4 1036.1
20260503130304 57 132 2.0 3.0 0.00 0.00 0.00 4 1036.1
20260503110804 56 92 1.0 1.0 0.00 0.00 0.00 4 1036.0
20260503090303 57 139 1.0 2.0 0.00 0.00 0.00 4 1035.3
20260503081304 57 138 0.0 0.0 0.00 0.00 0.00 6 1035.1
20260503080303 57 156 1.0 2.0 0.00 0.00 0.00 6 1035.1
20260503072804 58 132 0.0 2.0 0.00 0.00 0.00 25 1034.7
20260503072305 58 171 0.0 1.0 0.00 0.00 0.00 30 1034.7